AirNav   Air Wisconsin Up To $57,000 Bonus
 
 790 users online  

1I3 Shawnee Field Airport
Bloomfield, Indiana, USA

GOING TO BLOOMFIELD?


FAA INFORMATION EFFECTIVE 07 NOVEMBER 2019

Location

FAA Identifier: 1I3
Lat/Long: 39-02-33.8000N 087-00-09.9000W
39-02.563333N 087-00.165000W
39.0427222,-87.0027500
(estimated)
Elevation: 501 ft. / 152.7 m (surveyed)
Variation: 01W (1985)
From city: 3 miles W of BLOOMFIELD, IN
Time zone: UTC -5 (UTC -4 during Daylight Saving Time)
Zip code: 47465

Airport Operations

Airport use: Open to the public
Activation date: 10/1970
Control tower: no
ARTCC: INDIANAPOLIS CENTER
FSS: TERRE HAUTE FLIGHT SERVICE STATION
NOTAMs facility: HUF (NOTAM-D service available)
Attendance: UNATTENDED
FOR ARPT ATTNDT CALL 812-384-6232.
Wind indicator: lighted
Segmented circle: no
Lights: SS-SR

Airport Communications

CTAF: 122.9
WX ASOS at BMG (19 nm E): 110.2 (812-825-8046)

Nearby radio navigation aids

VOR radial/distance  VOR name  Freq  Var
OOMr254/19.1HOOSIER VORTAC110.2002W
TTHr155/29.1TERRE HAUTE VORTAC115.3002E

 
NDB name  Hdg/Dist  Freq  Var  ID
SULLIVAN104/21.132602WSIV ... .. ...-
PALESTINE090/29.839103WPLX .--. .-.. -..-

Airport Services

Parking: hangars and tiedowns
Airframe service: MINOR
Powerplant service: MINOR
PART TIME

Runway Information

Runway 18/36

Dimensions: 2160 x 150 ft. / 658 x 46 m
485 FT STWY NORTH END.
Surface: turf, in good condition
Runway edge lights: non-standard
RY 18/36 NSTD EDGE LGTS, PCV PIPE WITH GLASS JARS.
RUNWAY 18  RUNWAY 36
Latitude: 39-02.741323N39-02.385412N
Longitude: 087-00.165477W087-00.164000W
Elevation: 500.0 ft.500.0 ft.
Traffic pattern: leftleft
Runway heading: 181 magnetic, 180 true001 magnetic, 360 true
Markings: nonenone
Obstructions: none25 ft. bldg, 280 ft. from runway, 110 ft. left of centerline, 11:1 slope to clear

Airport Ownership and Management from official FAA records

Ownership: Privately-owned
Owner: SHAWNEE FIELD INC.
3416 W STATE ROAD 54
BLOOMFIELD, IN 47424
Phone (812) 384-6232
Manager: J. E. SUTPHIN
3416 W STATE ROAD 54
BLOOMFIELD, IN 47424
Phone (812) 384-6232

Airport Operational Statistics

Aircraft based on the field: 21
Single engine airplanes: 18
Ultralights: 3
    
Aircraft operations: avg 57/week *
83% local general aviation
17% transient general aviation
* for 12-month period ending 31 December 2016

Additional Remarks

370'ANTENNA TWR 1 MI NW.
RY 18/36 HAS A -4 FT SLOPE ON EAST SIDE; NORTH OF RY 18 THR.
BIRDS ON & INVOF RY.
ULTRA LGTS ON & INVOF ARPT.
FOR CD CTC HULMAN APCH AT 812-877-7581.

Instrument Procedures

There are no published instrument procedures at 1I3.

Some nearby airports with instrument procedures:

KBMG - Monroe County Airport (19 nm E)
KSIV - Sullivan County Airport (21 nm W)
KDCY - Daviess County Airport (21 nm S)
0I2 - Brazil Clay County Airport (26 nm N)
KHUF - Terre Haute Regional Airport (28 nm NW)
 
Loc | Ops | Rwys | IFR | FBO | Links
Com | Nav | Svcs | Stats | Notes
Area around 1I3 (Shawnee Field Airport)
 
Road maps at: MapQuest Bing Google
 
Aerial photo
WARNING: Photo may not be current or correct
Aerial photo of 1I3 (Shawnee Field Airport)
Do you have a better or more recent aerial photo of Shawnee Field Airport that you would like to share? If so, please send us your photo.

 
Sectional chart

 
Airport distance calculator
Flying to Shawnee Field Airport? Find the distance to fly.

From to 1I3

Sunrise and sunset
Times for 15-Nov-2019
 Local
(UTC-5)
 Zulu
(UTC)
Morning civil twilight07:0412:04
Sunrise07:3212:32
Sunset17:3322:33
Evening civil twilight18:0223:02

Current date and time
Zulu (UTC)  15-Nov-2019 13:27:39
Local (UTC-5)  15-Nov-2019 08:27:39
 
METAR
KBMG 
19nm E 
151253Z 00000KT 5SM BR CLR M07/M09 A3036 RMK AO2 SLP289 I1000 T10671089 $
KDCY 
21nm S 
151315Z AUTO 00000KT 3SM BR CLR M05/M05 A3040 RMK AO2 T10471048
KHUF 
29nm NW 
151253Z 33003KT 5SM BR CLR M04/M06 A3040 RMK AO2 SLP301 I1000 T10441061
KRSV 
30nm W 
151315Z AUTO 00000KT 5SM BR CLR M05/M06 A3042 RMK AO2 T10531063
KLWV 
32nm SW 
151253Z AUTO 30005KT 4SM BR CLR M06/M07 A3041 RMK AO2 SLP302 I1000 T10561072
KFRH 
36nm SE 
151315Z AUTO 00000KT 4SM CLR M05/M06 A3038 RMK AO1
KGPC 
37nm N 
151315Z AUTO 00000KT 5SM BR CLR M04/M06 A3037 RMK AO2
TAF
KBMG 
19nm E 
151120Z 1512/1612 31003KT P6SM FEW250 FM160900 06005KT P6SM BKN030 AMD LTD TO CLD VIS AND WIND TIL 151400
NOTAMs
Click for the latest NOTAMs
NOTAMs are issued by the DoD/FAA and will open in a separate window not controlled by AirNav.

 

 
 

Would you like to see your business listed on this page?

 If your business provides an interesting product or service to pilots, flight crews, aircraft, or users of the Shawnee Field Airport, you should consider listing it here.  To start the listing process, click on the button below
 
Add a business
 

Other Pages about Shawnee Field Airport

Update a link
 
Copyright © AirNav, LLC. All rights reserved. Privacy Policy  Contact